Terminal Aerodrome Forecast
Issued by NWS San Angelo, TX

Home | Current Version | Previous Version | Text Only | Print | Product List | Glossary On
Versions: 1 2 3 4 5 6 7 8 9 10 11 12 13 14 15 16 17 18 19
000
FTUS44 KSJT 240206 AAB
TAFSJT
TAF AMD
KSJT 240206Z 2402/2424 VRB06KT P6SM SCT150
     FM241200 VRB06KT P6SM BKN025 OVC050
     FM241500 VRB06KT P6SM OVC050
     FM241800 VRB06KT P6SM OVC050 PROB30 2418/2424 P6SM TS BKN050CB=

USA.gov is the U.S. government's official web portal to all federal, state and local government web resources and services.